Year,Month,Day,Hour,Minute,Value (Times are PST for temperature in C)
2011,08,14,08,20,13.80
2011,08,14,08,21,13.80
2011,08,14,08,22,13.90
2011,08,14,08,23,13.90
2011,08,14,08,24,13.90
2011,08,14,08,25,14.00
2011,08,14,08,26,13.90
2011,08,14,08,27,13.90
2011,08,14,08,28,13.90
2011,08,14,08,29,14.00
2011,08,14,08,30,14.00
2011,08,14,08,31,14.00
2011,08,14,08,32,14.00
2011,08,14,08,33,14.10
2011,08,14,08,34,14.10
2011,08,14,08,35,14.10
2011,08,14,08,36,14.10
2011,08,14,08,37,14.10
2011,08,14,08,38,14.10
2011,08,14,08,39,14.10
2011,08,14,08,40,14.10
2011,08,14,08,41,14.10
2011,08,14,08,42,14.20
2011,08,14,08,43,14.10
2011,08,14,08,44,14.10
2011,08,14,08,45,14.10
2011,08,14,08,46,14.10
2011,08,14,08,47,14.10
2011,08,14,08,48,14.10
2011,08,14,08,49,14.00
2011,08,14,08,50,14.00
2011,08,14,08,51,14.00
2011,08,14,08,52,14.00
2011,08,14,08,53,14.10
2011,08,14,08,54,14.10
2011,08,14,08,55,14.10
2011,08,14,08,56,14.10
2011,08,14,08,57,14.10
2011,08,14,08,58,14.10
2011,08,14,08,59,14.10
2011,08,14,09,00,14.10
2011,08,14,09,01,14.10
2011,08,14,09,02,14.20
2011,08,14,09,03,14.20
2011,08,14,09,04,14.20
2011,08,14,09,05,14.20
2011,08,14,09,06,14.20
2011,08,14,09,07,14.30
2011,08,14,09,08,14.40
2011,08,14,09,09,14.50
2011,08,14,09,10,14.60
2011,08,14,09,11,14.60
2011,08,14,09,12,14.80
2011,08,14,09,13,14.80
2011,08,14,09,14,14.90
2011,08,14,09,15,15.00
2011,08,14,09,16,15.10
2011,08,14,09,17,15.20
2011,08,14,09,18,15.30
2011,08,14,09,19,15.30
2011,08,14,09,20,15.30
2011,08,14,09,21,15.40
2011,08,14,09,22,15.40
2011,08,14,09,23,15.40
2011,08,14,09,24,15.40
2011,08,14,09,25,15.40
2011,08,14,09,26,15.40
2011,08,14,09,27,15.50
2011,08,14,09,28,15.50
2011,08,14,09,29,15.50
2011,08,14,09,30,15.60
2011,08,14,09,31,15.60
2011,08,14,09,32,15.70
2011,08,14,09,33,15.70
2011,08,14,09,34,15.60
2011,08,14,09,35,15.60
2011,08,14,09,36,15.60
2011,08,14,09,37,15.60
2011,08,14,09,38,15.50
2011,08,14,09,39,15.50
2011,08,14,09,40,15.50
2011,08,14,09,41,15.40
2011,08,14,09,42,15.40
2011,08,14,09,43,15.30
2011,08,14,09,44,15.30
2011,08,14,09,45,15.30
2011,08,14,09,46,15.20
2011,08,14,09,47,15.20
2011,08,14,09,48,15.20
2011,08,14,09,49,15.10
2011,08,14,09,50,15.10
2011,08,14,09,51,15.00
2011,08,14,09,52,15.00
2011,08,14,09,53,15.00
2011,08,14,09,54,15.00
2011,08,14,09,55,14.90
2011,08,14,09,56,14.90
2011,08,14,09,57,14.80
2011,08,14,09,58,14.80
2011,08,14,09,59,14.80
2011,08,14,10,00,14.80
2011,08,14,10,01,14.80
2011,08,14,10,02,14.70
2011,08,14,10,03,14.70
2011,08,14,10,04,14.80
2011,08,14,10,05,14.80
2011,08,14,10,06,14.80
2011,08,14,10,07,14.80
2011,08,14,10,08,14.80
2011,08,14,10,09,14.80
2011,08,14,10,10,14.80
2011,08,14,10,11,14.80
2011,08,14,10,12,14.80
2011,08,14,10,13,14.80
2011,08,14,10,14,14.80
2011,08,14,10,15,14.80
2011,08,14,10,16,14.90
2011,08,14,10,17,14.90
2011,08,14,10,18,15.00
2011,08,14,10,19,15.10
2011,08,14,10,20,15.20
2011,08,14,10,21,15.30
2011,08,14,10,22,15.50
2011,08,14,10,23,15.50
2011,08,14,10,24,15.60
2011,08,14,10,25,15.70
2011,08,14,10,26,15.80
2011,08,14,10,27,15.90
2011,08,14,10,28,15.90
2011,08,14,10,29,15.90
2011,08,14,10,30,15.80
2011,08,14,10,31,15.80
2011,08,14,10,32,15.80
2011,08,14,10,33,15.90
2011,08,14,10,34,15.90
2011,08,14,10,35,15.90
2011,08,14,10,36,15.90
2011,08,14,10,37,15.90
2011,08,14,10,38,16.00
2011,08,14,10,39,16.10
2011,08,14,10,40,16.10
2011,08,14,10,41,16.20
2011,08,14,10,42,16.30
2011,08,14,10,43,16.40
2011,08,14,10,44,16.40
2011,08,14,10,45,16.50
2011,08,14,10,46,16.60
2011,08,14,10,47,16.60
2011,08,14,10,48,16.70
2011,08,14,10,49,16.70
2011,08,14,10,50,16.70
2011,08,14,10,51,16.70
2011,08,14,10,52,16.70
2011,08,14,10,53,16.70
2011,08,14,10,54,16.70
2011,08,14,10,55,16.70
2011,08,14,10,56,16.80
2011,08,14,10,57,16.90
2011,08,14,10,58,17.00
2011,08,14,10,59,17.00
2011,08,14,11,00,17.00
2011,08,14,11,01,17.00
2011,08,14,11,02,17.00
2011,08,14,11,03,17.00
2011,08,14,11,04,17.00
2011,08,14,11,05,17.00
2011,08,14,11,06,17.00
2011,08,14,11,07,16.90
2011,08,14,11,08,17.00
2011,08,14,11,09,17.00
2011,08,14,11,10,17.00
2011,08,14,11,11,17.00
2011,08,14,11,12,16.90
2011,08,14,11,13,16.80
2011,08,14,11,14,16.80
2011,08,14,11,15,16.80
2011,08,14,11,16,16.70
2011,08,14,11,17,16.50
2011,08,14,11,18,16.40
2011,08,14,11,19,16.30
2011,08,14,11,20,16.40
2011,08,14,11,21,16.50
2011,08,14,11,22,16.60
2011,08,14,11,23,16.70
2011,08,14,11,24,16.70
2011,08,14,11,25,16.70
2011,08,14,11,26,16.80
2011,08,14,11,27,16.90
2011,08,14,11,28,17.00
2011,08,14,11,29,17.10
2011,08,14,11,30,17.30
2011,08,14,11,31,17.30
2011,08,14,11,32,17.40
2011,08,14,11,33,17.50
2011,08,14,11,34,17.70
2011,08,14,11,35,17.80
2011,08,14,11,36,17.90
2011,08,14,11,37,17.90
2011,08,14,11,38,17.90
2011,08,14,11,39,17.90
2011,08,14,11,40,18.10
2011,08,14,11,41,18.10
2011,08,14,11,42,18.10
2011,08,14,11,43,18.20
2011,08,14,11,44,18.20
2011,08,14,11,45,18.30
2011,08,14,11,46,18.30
2011,08,14,11,47,18.30
2011,08,14,11,48,18.20
2011,08,14,11,49,18.20
2011,08,14,11,50,18.10
2011,08,14,11,51,18.00
2011,08,14,11,52,17.90
2011,08,14,11,53,18.00
2011,08,14,11,54,18.20
2011,08,14,11,55,18.30
2011,08,14,11,56,18.30
2011,08,14,11,57,18.20
2011,08,14,11,58,18.20
2011,08,14,11,59,18.20
2011,08,14,12,00,18.20
2011,08,14,12,01,18.20
2011,08,14,12,02,18.30
2011,08,14,12,03,18.30
2011,08,14,12,04,18.40
2011,08,14,12,05,18.40
2011,08,14,12,06,18.40
2011,08,14,12,07,18.40
2011,08,14,12,08,18.30
2011,08,14,12,09,18.30
2011,08,14,12,10,18.30
2011,08,14,12,11,18.20
2011,08,14,12,12,18.20
2011,08,14,12,13,18.20
2011,08,14,12,14,18.10
2011,08,14,12,15,17.90
2011,08,14,12,16,17.80
2011,08,14,12,17,17.70
2011,08,14,12,18,17.70
2011,08,14,12,19,17.70
2011,08,14,12,20,17.70
2011,08,14,12,21,17.80
2011,08,14,12,22,17.90
2011,08,14,12,23,17.80
2011,08,14,12,24,17.70
2011,08,14,12,25,17.70
2011,08,14,12,26,17.50
2011,08,14,12,27,17.40
2011,08,14,12,28,17.30
2011,08,14,12,29,17.20
2011,08,14,12,30,17.00
2011,08,14,12,31,16.90
2011,08,14,12,32,16.90
2011,08,14,12,33,16.80
2011,08,14,12,34,16.70
2011,08,14,12,35,16.70
2011,08,14,12,36,16.70
2011,08,14,12,37,16.70
2011,08,14,12,38,16.80
2011,08,14,12,39,16.90
2011,08,14,12,40,17.00
2011,08,14,12,41,17.10
2011,08,14,12,42,17.10
2011,08,14,12,43,17.10
2011,08,14,12,44,17.20
2011,08,14,12,45,17.30
2011,08,14,12,46,17.30
2011,08,14,12,47,17.40
2011,08,14,12,48,17.50
2011,08,14,12,49,17.60
2011,08,14,12,50,17.70
2011,08,14,12,51,17.70
2011,08,14,12,52,17.80
2011,08,14,12,53,18.00
2011,08,14,12,54,18.10
2011,08,14,12,55,18.30
2011,08,14,12,56,18.50
2011,08,14,12,57,18.70
2011,08,14,12,58,18.80
2011,08,14,12,59,18.90
2011,08,14,13,00,18.90
2011,08,14,13,01,18.80
2011,08,14,13,02,18.60
2011,08,14,13,03,18.50
2011,08,14,13,04,18.30
2011,08,14,13,05,18.20
2011,08,14,13,06,18.10
2011,08,14,13,07,18.10
2011,08,14,13,08,18.10
2011,08,14,13,09,18.10
2011,08,14,13,10,18.10
2011,08,14,13,11,18.20
2011,08,14,13,12,18.20
2011,08,14,13,13,18.20
2011,08,14,13,14,18.10
2011,08,14,13,15,17.90
2011,08,14,13,16,17.90
2011,08,14,13,17,17.90
2011,08,14,13,18,17.90
2011,08,14,13,19,17.80
2011,08,14,13,20,17.80
2011,08,14,13,21,17.80
2011,08,14,13,22,17.80
2011,08,14,13,23,17.70
2011,08,14,13,24,17.70
2011,08,14,13,25,17.60
2011,08,14,13,26,17.50
2011,08,14,13,27,17.50
2011,08,14,13,28,17.40
2011,08,14,13,29,17.40
2011,08,14,13,30,17.40
2011,08,14,13,31,17.40
2011,08,14,13,32,17.40
2011,08,14,13,33,17.40
2011,08,14,13,34,17.40
2011,08,14,13,35,17.50
2011,08,14,13,36,17.60
2011,08,14,13,37,17.70
2011,08,14,13,38,17.80
2011,08,14,13,39,17.90
2011,08,14,13,40,17.90
2011,08,14,13,41,17.90
2011,08,14,13,42,17.80
2011,08,14,13,43,17.90
2011,08,14,13,44,17.90
2011,08,14,13,45,17.90
2011,08,14,13,46,17.80
2011,08,14,13,47,17.70
2011,08,14,13,48,17.70
2011,08,14,13,49,17.50
2011,08,14,13,50,17.30
2011,08,14,13,51,17.00
2011,08,14,13,52,16.80
2011,08,14,13,53,16.60
2011,08,14,13,54,16.50
2011,08,14,13,55,16.40
2011,08,14,13,56,16.40
2011,08,14,13,57,16.30
2011,08,14,13,58,16.20
2011,08,14,13,59,16.20
2011,08,14,14,00,16.10
2011,08,14,14,01,16.10
2011,08,14,14,02,16.10
2011,08,14,14,03,16.10
2011,08,14,14,04,16.20
2011,08,14,14,05,16.20
2011,08,14,14,06,16.10
2011,08,14,14,07,16.10
2011,08,14,14,08,16.10
2011,08,14,14,09,16.10
2011,08,14,14,10,16.20
2011,08,14,14,11,16.30
2011,08,14,14,12,16.30
2011,08,14,14,13,16.40
2011,08,14,14,14,16.60
2011,08,14,14,15,16.70
2011,08,14,14,16,16.70
2011,08,14,14,17,16.80
2011,08,14,14,18,16.90
2011,08,14,14,19,17.10
2011,08,14,14,20,17.10
2011,08,14,14,21,17.10
2011,08,14,14,22,17.20
2011,08,14,14,23,17.20
2011,08,14,14,24,17.10
2011,08,14,14,25,17.00
2011,08,14,14,26,17.00
2011,08,14,14,27,17.00
2011,08,14,14,28,17.00
2011,08,14,14,29,17.10
2011,08,14,14,30,17.20
2011,08,14,14,31,17.20
2011,08,14,14,32,17.20
2011,08,14,14,33,17.20
2011,08,14,14,34,17.10
2011,08,14,14,35,17.10
2011,08,14,14,36,17.00
2011,08,14,14,37,16.90
2011,08,14,14,38,16.80
2011,08,14,14,39,16.70
2011,08,14,14,40,16.70
2011,08,14,14,41,16.70
2011,08,14,14,42,16.70
2011,08,14,14,43,16.70
2011,08,14,14,44,16.70
2011,08,14,14,45,16.70
2011,08,14,14,46,16.70
2011,08,14,14,47,16.70
2011,08,14,14,48,16.70
2011,08,14,14,49,16.50
2011,08,14,14,50,16.50
2011,08,14,14,51,16.60
2011,08,14,14,52,16.70
2011,08,14,14,53,16.70
2011,08,14,14,54,16.70
2011,08,14,14,55,16.60
2011,08,14,14,56,16.60
2011,08,14,14,57,16.60
2011,08,14,14,58,16.60
2011,08,14,14,59,16.60
2011,08,14,15,00,16.50
2011,08,14,15,01,16.50
2011,08,14,15,02,16.40
2011,08,14,15,03,16.40
2011,08,14,15,04,16.30
2011,08,14,15,05,16.30
2011,08,14,15,06,16.20
2011,08,14,15,07,16.20
2011,08,14,15,08,16.20
2011,08,14,15,09,16.20
2011,08,14,15,10,16.20
2011,08,14,15,11,16.10
2011,08,14,15,12,16.10
2011,08,14,15,13,16.10
2011,08,14,15,14,16.10
2011,08,14,15,15,16.10
2011,08,14,15,16,16.10
2011,08,14,15,17,16.10
2011,08,14,15,18,16.10
2011,08,14,15,19,16.10
2011,08,14,15,20,16.10
2011,08,14,15,21,16.10
2011,08,14,15,22,16.20
2011,08,14,15,23,16.20
2011,08,14,15,24,16.30
2011,08,14,15,25,16.30
2011,08,14,15,26,16.40
2011,08,14,15,27,16.40
2011,08,14,15,28,16.50
2011,08,14,15,29,16.60
2011,08,14,15,30,16.60
2011,08,14,15,31,16.70
2011,08,14,15,32,16.70
2011,08,14,15,33,16.60
2011,08,14,15,34,16.60
2011,08,14,15,35,16.60
2011,08,14,15,36,16.70
2011,08,14,15,37,16.70
2011,08,14,15,38,16.90
2011,08,14,15,39,17.00
2011,08,14,15,40,17.10
2011,08,14,15,41,17.20
2011,08,14,15,42,17.20
2011,08,14,15,43,17.20
2011,08,14,15,44,17.20
2011,08,14,15,45,17.10
2011,08,14,15,46,17.10
2011,08,14,15,47,17.00
2011,08,14,15,48,17.10
2011,08,14,15,49,17.10
2011,08,14,15,50,17.10
2011,08,14,15,51,17.10
2011,08,14,15,52,17.20
2011,08,14,15,53,17.20
2011,08,14,15,54,17.20
2011,08,14,15,55,17.10
2011,08,14,15,56,17.10
2011,08,14,15,57,17.10
2011,08,14,15,58,17.20
2011,08,14,15,59,17.30
2011,08,14,16,00,17.40
2011,08,14,16,01,17.40
2011,08,14,16,02,17.40
2011,08,14,16,03,17.40
2011,08,14,16,04,17.50
2011,08,14,16,05,17.50
2011,08,14,16,06,17.60
2011,08,14,16,07,17.70
2011,08,14,16,08,17.80
2011,08,14,16,09,17.80
2011,08,14,16,10,17.90
2011,08,14,16,11,17.90
2011,08,14,16,12,17.90
2011,08,14,16,13,17.90
2011,08,14,16,14,17.90
2011,08,14,16,15,17.90
2011,08,14,16,16,17.90
2011,08,14,16,17,17.90
2011,08,14,16,18,17.90
2011,08,14,16,19,18.10
2011,08,14,16,20,18.20
2011,08,14,16,21,18.30
2011,08,14,16,22,18.50
2011,08,14,16,23,18.70
2011,08,14,16,24,18.90
2011,08,14,16,25,19.20
2011,08,14,16,26,19.40
2011,08,14,16,27,19.50
2011,08,14,16,28,19.70
2011,08,14,16,29,19.80
2011,08,14,16,30,19.80
2011,08,14,16,31,19.90
2011,08,14,16,32,19.90
2011,08,14,16,33,19.90
2011,08,14,16,34,20.00
2011,08,14,16,35,20.10
2011,08,14,16,36,20.20
2011,08,14,16,37,20.20
2011,08,14,16,38,20.30
2011,08,14,16,39,20.30
2011,08,14,16,40,20.40
2011,08,14,16,41,20.40
2011,08,14,16,42,20.40
2011,08,14,16,43,20.20
2011,08,14,16,44,20.00
2011,08,14,16,45,19.80
2011,08,14,16,46,19.60
2011,08,14,16,47,19.50
2011,08,14,16,48,19.40
2011,08,14,16,49,19.40
2011,08,14,16,50,19.50
2011,08,14,16,51,19.60
2011,08,14,16,52,19.80
2011,08,14,16,53,20.00
2011,08,14,16,54,20.20
2011,08,14,16,55,20.40
2011,08,14,16,56,20.70
2011,08,14,16,57,20.90
2011,08,14,16,58,21.10
2011,08,14,16,59,21.30
2011,08,14,17,00,21.50
2011,08,14,17,01,21.70
2011,08,14,17,02,21.90
2011,08,14,17,03,22.00
2011,08,14,17,04,22.20
2011,08,14,17,05,22.30
2011,08,14,17,06,22.50
2011,08,14,17,07,22.60
2011,08,14,17,08,22.70
2011,08,14,17,09,22.80
2011,08,14,17,10,22.80
2011,08,14,17,11,22.90
2011,08,14,17,12,22.90
2011,08,14,17,13,22.90
2011,08,14,17,14,22.90
2011,08,14,17,15,22.90
2011,08,14,17,16,22.90
2011,08,14,17,17,22.80
2011,08,14,17,18,22.80
2011,08,14,17,19,22.70
2011,08,14,17,20,22.70
2011,08,14,17,21,22.70
2011,08,14,17,22,22.70
2011,08,14,17,23,22.70
2011,08,14,17,24,22.70
2011,08,14,17,25,22.60
2011,08,14,17,26,22.60
2011,08,14,17,27,22.60
2011,08,14,17,28,22.60
2011,08,14,17,29,22.60
2011,08,14,17,30,22.50
2011,08,14,17,31,22.40
2011,08,14,17,32,22.40
2011,08,14,17,33,22.40
2011,08,14,17,34,22.30
2011,08,14,17,35,22.30
2011,08,14,17,36,22.30
2011,08,14,17,37,22.20
2011,08,14,17,38,22.20
2011,08,14,17,39,22.10
2011,08,14,17,40,22.00
2011,08,14,17,41,21.90
2011,08,14,17,42,21.80
2011,08,14,17,43,21.80
2011,08,14,17,44,21.80
2011,08,14,17,45,21.70
2011,08,14,17,46,21.70
2011,08,14,17,47,21.70
2011,08,14,17,48,21.70
2011,08,14,17,49,21.60
2011,08,14,17,50,21.60
2011,08,14,17,51,21.60
2011,08,14,17,52,21.60
2011,08,14,17,53,21.60
2011,08,14,17,54,21.60
2011,08,14,17,55,21.40
2011,08,14,17,56,21.40
2011,08,14,17,57,21.30
2011,08,14,17,58,21.30
2011,08,14,17,59,21.30
2011,08,14,18,00,21.30
2011,08,14,18,01,21.30
2011,08,14,18,02,21.30
2011,08,14,18,03,21.30
2011,08,14,18,04,21.30
2011,08,14,18,05,21.30
2011,08,14,18,06,21.30
2011,08,14,18,07,21.30
2011,08,14,18,08,21.30
2011,08,14,18,09,21.30
2011,08,14,18,10,21.30
2011,08,14,18,11,21.30
2011,08,14,18,12,21.30
2011,08,14,18,13,21.30
2011,08,14,18,14,21.30
2011,08,14,18,15,21.30
2011,08,14,18,16,21.30
2011,08,14,18,17,21.40
2011,08,14,18,18,21.40
2011,08,14,18,19,21.30
2011,08,14,18,20,21.30
2011,08,14,18,21,21.30
2011,08,14,18,22,21.30
2011,08,14,18,23,21.20
2011,08,14,18,24,21.20
2011,08,14,18,25,21.20
2011,08,14,18,26,21.10
2011,08,14,18,27,21.00
2011,08,14,18,28,21.00
2011,08,14,18,29,20.90
2011,08,14,18,30,20.90
2011,08,14,18,31,20.80
2011,08,14,18,32,20.80
2011,08,14,18,33,20.70
2011,08,14,18,34,20.70
2011,08,14,18,35,20.60
2011,08,14,18,36,20.60
2011,08,14,18,37,20.60
2011,08,14,18,38,20.60
2011,08,14,18,39,20.60
2011,08,14,18,40,20.60
2011,08,14,18,41,20.60
2011,08,14,18,42,20.60
2011,08,14,18,43,20.60
2011,08,14,18,44,20.60
2011,08,14,18,45,20.60
2011,08,14,18,46,20.60
2011,08,14,18,47,20.60
